Location: Newark
(15.4608°S, 41.1635°W)
Time: 00:09:51
(UTC+00:00)

Vanguard 3 - Pass Details

Date: 07 August 2021
Orbit: 510 x 3260 km, 33.3° (Epoch: 20 September)

Event Time Altitude Azimuth Distance (km) Brightness Sun altitude
Rises 05:39:37 0° 289° (WNW) 6,550 - -49.4°
Reaches altitude 10° 05:44:44 10° 285° (WNW) 5,154 - -48.2°
Maximum altitude 05:57:57 53° 211° (SSW) 1,932 - -45.0°
Exits shadow 06:03:34 20° 142° (SE) 2,496 9.8 -43.7°
Drops below altitude 10° 06:05:23 10° 135° (SE) 2,989 10.3 -43.2°
Sets 06:07:36 0° 129° (SE) 3,684 11.0 -42.7°
